Location: Oshawa
(43.9000°N, 78.8670°W)
Time: 15:58:49
(UTC-04:00)

S-56A Canister/Altair - All Passes

Search period start: 20 September 2014 00:00
Search period end: 30 September 2014 00:00
Orbit: 633 x 2503 km, 38.9° (Epoch: 17 September)

Date Brightness Start Highest point End Pass type
(mag) Time Alt. Az. Time Alt. Az. Time Alt. Az.
20 Sep - 07:03:38 10° SSW 07:06:50 19° SSE 07:10:17 10° ESE daylight
20 Sep - 09:05:15 10° WSW 09:09:44 48° S 09:15:36 10° E daylight
20 Sep - 11:08:02 10° W 11:13:17 49° S 11:20:53 10° ESE daylight
20 Sep - 13:11:34 10° W 13:17:15 28° SSW 13:25:02 10° SSE daylight
21 Sep - 06:32:05 10° S 06:34:52 16° SSE 06:37:45 10° ESE visible
21 Sep - 08:33:25 10° WSW 08:37:43 44° SSE 08:43:04 10° E daylight
21 Sep - 10:36:11 10° W 10:41:09 49° S 10:48:08 10° ESE daylight
21 Sep - 12:39:35 10° W 12:44:58 29° SSW 12:52:23 10° SSE daylight
21 Sep - 14:48:38 10° SW 14:49:00 10° SW 14:49:23 10° SW daylight
22 Sep - 06:00:35 10° S 06:02:54 14° SSE 06:05:13 10° ESE visible
22 Sep - 08:01:34 10° SW 08:05:43 40° SSE 08:10:38 10° E daylight
22 Sep - 10:04:20 10° W 10:09:03 49° S 10:15:29 10° ESE daylight
22 Sep - 12:07:38 10° W 12:12:44 30° SSW 12:19:45 10° SE daylight
22 Sep - 14:14:46 10° SW 14:16:41 11° SW 14:18:45 10° SSW daylight
23 Sep - 05:29:14 10° S 05:30:54 12° SSE 05:32:33 10° SE visible
23 Sep - 07:29:41 10° SW 07:33:45 36° SSE 07:38:16 10° E daylight
23 Sep - 09:32:28 10° WSW 09:36:59 49° S 09:42:54 10° ESE daylight
23 Sep - 11:35:42 10° W 11:40:33 31° SSW 11:47:09 10° SE daylight
23 Sep - 13:41:57 10° SW 13:44:24 12° SSW 13:47:06 10° SSW daylight
24 Sep - 04:58:27 10° SSE 04:58:54 10° SSE 04:59:21 10° SE visible
24 Sep - 06:57:47 10° SW 07:01:47 33° SSE 07:05:59 10° E daylight
24 Sep - 09:00:35 10° WSW 09:04:57 48° S 09:10:25 10° ESE daylight
24 Sep - 11:03:48 10° W 11:08:25 31° SSW 11:14:36 10° SE daylight
24 Sep - 13:09:26 10° SW 13:12:08 12° SSW 13:15:12 10° S daylight
25 Sep - 06:25:50 10° SW 06:29:49 30° SSE 06:33:46 10° E visible
25 Sep - 08:28:40 10° WSW 08:32:56 47° S 08:38:01 10° ESE daylight
25 Sep - 10:31:53 10° W 10:36:18 32° SSW 10:42:06 10° SE daylight
25 Sep - 12:37:05 10° WSW 12:39:55 13° SSW 12:43:12 10° S daylight
26 Sep - 05:53:51 10° SW 05:57:50 27° SSE 06:01:37 10° ESE visible
26 Sep - 07:56:42 10° WSW 08:00:56 46° S 08:05:42 10° ESE daylight
26 Sep - 09:59:59 10° W 10:04:14 33° SSW 10:09:40 10° SE daylight
26 Sep - 12:04:49 10° WSW 12:07:45 14° SSW 12:11:08 10° S daylight
27 Sep - 05:21:49 10° SW 05:25:51 25° SSE 05:29:31 10° ESE visible
27 Sep - 07:24:42 10° WSW 07:28:57 45° S 07:33:28 10° ESE daylight
27 Sep - 09:28:03 10° W 09:32:12 35° SSW 09:37:18 10° SE daylight
27 Sep - 11:32:38 10° WSW 11:35:36 15° SSW 11:39:03 10° S daylight
28 Sep - 04:49:43 10° SSW 04:53:51 23° SSE 04:57:27 10° ESE visible
28 Sep - 06:52:38 10° WSW 06:56:59 44° S 07:01:18 10° ESE daylight
28 Sep - 08:56:05 10° W 09:00:11 36° SSW 09:05:00 10° SE daylight
28 Sep - 11:00:29 10° WSW 11:03:29 15° SSW 11:06:58 10° S daylight
29 Sep - 04:17:35 10° SSW 04:21:49 22° SSE 04:25:24 10° ESE visible
29 Sep - 06:20:30 10° WSW 06:25:00 43° S 06:29:13 10° ESE visible
29 Sep - 08:24:05 10° W 08:28:11 38° SSW 08:32:46 10° SE daylight
29 Sep - 10:28:22 10° WSW 10:31:24 16° SSW 10:34:54 10° SSE daylight
